Погода в Рыльске

Россия / Курская область     51°34′17″N   34°40′59″E
темп.,
°C
ветер,
м/с
пор.,
м/с
влажн.,
%
обл.,
%
осадки,
мм/ч
давл.,
гПа
погр.,
м
5 августа, чт
чт500:00+17вюв236199 0.0 101737
03:00+16юв485997 0.0 1017137
06:00+17ююв31055100 0.0 1016232
09:00+19ююв3857100 0.0 1015324
12:00+26ююз5639100 0.0 10151297
15:00+28ююз5738100 0.0 10132675
18:00+27ююз574492 0.0 10121009
21:00+21юз116479 0.1 101211
6 августа, пт
пт600:00+21вюв365773 0.0 1011121
03:00+20ююв4125492 0.0 1011245
06:00+21ююв5134852 0.0 1010337
09:00+24ююв5845100 0.0 1008374
12:00+29ю5734100 0.0 10081271
15:00+32ю57275 0.0 10062169
18:00+31юз4733100 0.0 1005486
21:00+25ююз22425 0.0 100521
7 августа, сб
сб700:00+20св3365100 0.0 100636
03:00+20ююз127255 0.3 100618
06:00+19вюв3782100 0.4 1006155
09:00+22ю51173100 1.8 1007514
12:00+27ююз4548100 0.3 10071124
15:00+29юз2345100 0.3 10071597
18:00+29сз434996 0.0 10071059
21:00+20ссз51188100 1.6 1010427
8 августа, вс
вс800:00+18ссз389458 3.9 1012210
03:00+17ссз41093100 4.3 1013243
06:00+16ссз49940 0.0 1013239
09:00+20с57690 0.0 1014489
12:00+25с56430 0.0 10141068
15:00+27с55350 0.0 10141277
18:00+26ссв44420 0.0 10151216
21:00+20с33590 0.0 101622
9 августа, пн
пн900:00+17ссв34695 0.0 101747
03:00+16ссв33713 0.0 101743
06:00+15ссв33744 0.0 101748
09:00+22св34540 0.0 1017380
12:00+26ссв33388 0.0 10171162
15:00+28с33340 0.0 10161669
18:00+27с33395 0.0 10151548
21:00+21ссв225599 0.0 101618